Location: Unspecified
(51.0000°N, 12.0000°E)
Time: 04:27:36
(UTC+01:00)

ISS - Pass Details

Date: 12 November 2017
Orbit: 402 x 407 km, 51.6° (Epoch: 23 November)

Event Time Altitude Azimuth Distance (km) Brightness Sun altitude
Exits shadow 04:19:40 17° 87° (E) 1,127 -0.8 -28.8°
Drops below altitude 10° 04:20:26 10° 89° (E) 1,438 -0.1 -28.7°
Sets 04:22:34 0° 91° (E) 2,316 1.2 -28.3°
